SCP
0 0 0 0 0 0 0 0 0 0 0 0 0 -0 -0 -0 -0 0 0 0 0 0 0 0 0 1 1 1 1 1 1 0 0 0 1 1 1 0 0 0 0 0 0
0 0 0 0 0 0 0 0 0 0 0 0 0 0 0 0 0 0 0 0 0 0 0 0 0 0 1 1 1 1 1 0 0 0 1 1 1 0 0 0 0 0 0
0 0 0 0 0 0 0 0 0 0 0 0 0 0 0 0 0 0 0 0 0 0 0 0 0 0 0 0 0 0 1 1 0 0 0 1 1 1 0 0 0 0 0
0 0 0 0 0 0 0 0 0 0 0 0 0 0 0 0 -0 0 0 0 0 0 0 0 0 0 0 0 0 0 0 1 0 0 0 0 1 1 1 0 0 0 0
0 0 0 0 0 0 0 0 0 0 0 0 0 0 0 0 0 0 0 0 0 0 0 0 0 0 0 1 1 0 1 1 0 0 0 0 0 1 1 1 1 0 0
0 0 0 0 0 0 0 0 0 0 0 0 0 0 0 0 0 0 0 0 0 0 0 0 0 0 2 1 1 1 0 0 0 0 0 0 0 0 1 1 1 1 0
0 0 0 0 0 0 0 0 0 0 0 0 0 0 0 0 0 0 0 0 0 0 0 0 0 0 0 1 2 1 1 0 0 0 0 0 0 0 0 1 1 1 1
0 0 0 0 0 0 0 0 0 0 0 0 0 0 0 0 0 0 0 0 0 0 0 0 0 0 0 0 0 1 1 0 0 0 0 0 0 0 0 0 1 1 1
0 0 0 0 0 0 0 0 0 0 0 0 0 0 0 0 0 0 0 0 0 0 0 0 0 0 0 0 0 0 1 1 0 0 0 0 0 0 0 0 0 1 1
0 0 0 0 0 0 0 0 0 0 0 0 0 0 0 0 0 0 0 0 0 0 0 0 0 0 0 0 0 0 1 1 1 1 0 0 0 0 0 0 0 1 1
0 0 0 0 0 0 0 0 0 0 0 0 0 0 0 0 0 0 0 0 0 0 0 -0 0 0 0 0 0 0 0 1 0 0 0 0 0 0 0 0 0 0 0
0 0 0 0 0 0 0 0 0 0 0 0 0 0 0 0 0 0 0 0 0 0 0 0 0 0 0 0 0 0 0 0 0 0 0 0 0 0 0 0 0 0 0
0 0 0 0 0 0 0 0 0 0 0 0 0 0 0 0 0 0 0 0 0 0 0 0 0 0 0 0 0 0 0 0 0 0 0 0 0 0 0 0 0 0 0
0 0 0 0 0 0 0 0 0 0 0 0 0 0 0 0 0 0 0 0 0 0 0 0 0 0 0 0 0 0 0 0 0 0 0 0 0 0 0 0 0 0 0
0 0 0 0 0 0 0 0 0 0 0 0 0 0 0 0 0 0 0 0 0 0 0 0 0 0 0 0 0 0 0 0 0 0 0 0 0 0 0 0 0 0 0
0 0 0 0 0 0 0 0 0 0 0 0 0 0 0 0 0 0 0 0 0 -0 0 0 0 0 0 0 0 0 0 0 0 0 0 0 0 0 0 0 0 0 0
0 0 0 0 0 0 0 0 0 0 0 0 0 0 0 0 -0 0 0 0 0 0 0 0 0 0 0 0 0 0 0 0 0 0 0 0 0 0 0 0 0 0 0
0 0 0 0 0 0 0 0 0 0 0 0 0 0 0 -0 -0 0 0 -0 0 -0 0 0 0 0 0 0 0 0 0 0 0 -0 -0 -0 -0 -0 -0 -0 -0 0 0
0 0 0 -0 -0 0 0 0 0 0 0 0 0 0 0 -0 -0 0 -0 0 0 -0 0 0 0 0 0 0 0 0 0 0 0 -0 -0 -0 -0 -0 -0 -0 -0 -0 -0
0 0 0 0 0 0 0 0 0 0 0 0 0 0 -0 -0 -0 0 -0 -0 0 -0 0 0 0 0 0 0 0 0 0 0 0 0 -0 -0 -0 -0 -0 -0 -0 -0 -0
0 0 0 0 0 0 0 0 0 0 0 0 0 0 0 0 -0 -0 -0 0 0 0 0 0 0 0 0 0 0 0 0 0 0 0 0 0 0 0 0 -0 -0 -0 -0
0 0 0 -0 -0 0 0 0 0 0 0 0 0 0 0 -0 -0 -0 0 -0 0 0 0 0 0 0 0 0 0 0 0 0 0 0 0 0 0 0 0 0 -0 -0 -0
-0 -0 0 -0 -0 0 0 -0 -0 0 0 0 0 0 0 0 0 0 0 -0 -0 0 0 0 0 0 0 0 0 0 0 0 0 0 0 0 0 0 0 0 0 0 0
0 0 -0 -0 -0 0 0 0 -0 0 0 0 0 0 0 0 0 0 0 0 0 0 0 0 0 0 0 0 0 0 0 0 0 0 0 0 0 0 0 0 -0 -0 0
0 0 0 -0 -0 0 0 0 0 0 0 0 0 0 0 0 0 0 0 0 0 0 0 0 0 0 0 0 0 0 0 0 0 0 0 0 0 0 0 0 0 -0 0
0 0 0 0 -0 0 0 0 0 0 -0 -0 0 0 0 0 -0 -0 0 0 0 0 0 0 0 0 0 0 0 0 0 0 0 0 0 0 0 0 -0 -0 0 0 0
Wind_Speed_500mb
29 36 35 35 33 32 30 35 35 35 34 39 44 48 49 53 57 55 48 46 42 53 53 47 52 50 52 47 37 38 29 25 24 30 34 39 42 45 44 42 40 38 37
33 39 39 41 40 39 36 37 37 37 39 40 45 49 52 54 58 57 54 53 51 48 52 55 53 56 58 59 45 41 35 28 22 21 28 35 38 44 49 47 45 43 42
32 36 43 47 46 43 42 45 40 43 45 48 47 49 51 57 61 55 53 54 55 49 52 58 57 57 62 65 55 44 44 39 32 25 25 28 33 35 43 51 51 48 47
37 41 46 52 50 50 51 52 46 48 53 58 57 57 60 64 62 51 51 57 57 55 44 56 59 59 56 60 62 52 50 47 39 30 24 24 28 34 35 40 53 53 52
39 45 53 56 54 56 58 59 55 58 61 60 57 59 59 66 62 51 48 46 53 50 39 47 59 57 55 58 61 56 52 52 44 37 29 30 33 35 38 40 43 54 58
45 54 54 50 54 59 58 53 58 58 60 55 55 58 57 61 58 42 41 32 37 40 27 29 36 46 52 54 58 55 53 50 47 41 33 35 36 47 49 49 49 47 51
52 56 55 49 53 54 54 59 59 52 51 49 57 64 59 57 28 40 31 27 20 24 17 19 27 35 42 47 49 52 53 40 35 40 37 34 38 45 53 59 59 56 49
52 49 46 48 47 45 46 44 44 48 59 48 45 50 35 31 31 20 35 26 22 15 12 14 21 35 46 46 50 49 53 46 41 44 40 43 50 49 53 56 60 64 58
36 35 33 34 37 40 42 46 48 49 52 43 37 30 20 16 31 40 19 19 24 19 20 15 17 16 33 27 38 34 34 35 43 46 49 50 53 49 51 53 52 59 64
26 30 36 38 39 38 39 38 39 42 48 45 38 37 33 35 33 29 23 23 24 26 23 28 14 12 25 20 27 35 31 38 45 49 49 46 44 42 46 46 48 54 57
39 42 42 35 37 43 42 42 41 38 37 37 34 38 52 49 44 48 42 33 30 25 26 23 33 24 12 24 24 22 29 32 36 43 43 41 40 41 48 45 44 49 51
47 47 45 46 48 47 44 39 38 31 32 37 43 44 44 44 37 38 25 27 28 26 23 17 21 25 35 26 20 23 24 34 37 36 39 31 32 35 34 43 46 47 51
43 40 38 35 33 30 30 32 31 30 29 26 27 30 22 30 30 27 28 26 23 22 18 18 14 20 26 27 40 26 24 30 28 25 29 33 33 30 30 32 37 42 43
26 25 27 27 24 25 26 29 25 20 24 29 29 28 27 23 24 23 21 20 14 15 7 14 17 14 19 17 18 24 20 22 19 16 21 24 30 35 36 35 35 37 40
27 26 29 27 26 25 28 26 25 25 27 28 26 24 22 18 18 17 18 17 11 8 6 12 5 14 14 17 18 12 9 11 15 17 20 21 26 30 36 41 42 41 40
30 29 31 29 29 29 29 28 27 24 29 30 31 26 19 19 16 9 12 13 14 13 6 10 10 1 11 23 15 11 5 0 3 9 10 11 18 25 33 39 44 45 42
34 32 33 32 32 31 30 26 22 27 29 28 33 26 22 16 9 16 10 11 10 11 13 8 9 6 7 17 18 11 10 8 9 7 5 10 9 2 2 14 33 42 42
33 33 31 30 32 36 35 32 35 34 31 29 21 17 18 21 17 10 14 11 10 9 12 6 6 11 21 22 10 11 17 37 47 50 37 23 15 14 12 12 26 32 33
29 28 30 33 37 39 38 37 33 25 26 27 25 19 13 12 17 9 12 13 14 13 11 4 8 16 17 21 4 18 25 45 41 50 54 61 62 48 31 18 19 25 28
31 26 34 35 36 40 41 32 27 28 25 29 33 34 28 16 9 5 7 9 13 21 11 12 6 20 22 18 21 34 34 33 32 32 33 43 48 54 58 65 45 35 27
31 29 33 37 44 51 39 34 28 30 30 32 36 37 30 25 19 22 19 21 18 21 15 18 25 24 24 23 29 43 50 45 50 51 43 47 49 53 53 52 52 51 54
33 30 32 39 50 50 32 32 29 36 37 35 37 34 31 27 25 21 28 28 14 21 23 26 31 32 31 34 27 34 41 41 45 44 49 59 51 58 56 51 45 44 41
38 33 33 40 48 53 36 33 29 34 35 34 36 33 31 34 32 31 29 27 23 22 29 27 34 24 13 19 17 16 25 34 45 47 44 51 43 47 50 46 41 43 43
36 36 32 36 43 53 46 30 25 30 36 36 40 45 46 43 40 40 45 34 34 32 32 28 28 24 23 14 21 15 24 31 37 39 42 53 44 49 42 46 45 42 41
34 37 30 34 44 53 49 35 30 31 32 35 34 34 39 43 43 42 42 46 53 53 46 39 35 44 37 30 28 31 30 33 37 34 37 45 40 44 41 43 44 44 41
35 39 31 33 37 49 49 42 32 32 36 38 43 47 53 54 54 52 56 58 57 45 39 40 29 30 33 35 28 19 19 19 29 24 24 38 36 35 32 35 36 38 37
Wind_Direction_500mb
280 263 271 278 278 286 284 295 297 309 318 326 331 329 325 324 322 318 310 300 285 263 250 245 241 233 226 231 237 242 242 248 274 277 257 242 240 236 232 228 227 223 220
289 271 269 277 279 288 282 286 288 300 311 314 323 326 323 323 322 313 306 301 291 277 259 241 241 233 227 230 236 234 237 228 258 267 261 245 239 236 232 231 228 225 224
288 279 282 288 285 282 284 281 286 299 307 312 320 321 321 322 324 313 307 305 301 288 266 246 239 238 234 230 235 231 224 221 234 245 258 247 247 242 234 231 229 227 225
291 289 286 292 289 284 282 286 290 296 302 301 308 316 317 322 324 312 305 303 302 299 276 246 237 238 237 237 236 233 224 224 226 233 244 249 246 248 249 237 230 229 229
295 293 290 292 288 286 284 290 290 297 297 296 300 306 310 318 320 311 305 299 303 307 285 240 236 237 238 236 235 230 225 222 225 233 245 256 260 253 248 248 241 231 230
291 292 292 290 284 285 289 284 286 294 295 294 300 301 305 317 311 301 300 296 314 320 283 242 243 237 234 236 231 225 229 226 228 236 243 259 270 254 247 244 242 241 233
290 291 292 290 287 285 288 288 290 291 291 294 302 303 309 311 290 296 268 288 295 307 267 233 243 220 212 208 215 218 222 203 232 248 256 270 273 264 248 239 238 237 238
298 301 294 290 290 296 299 301 301 299 301 297 301 315 307 299 305 283 290 266 257 268 263 232 209 217 211 202 206 215 221 236 235 249 259 271 274 273 248 238 235 233 234
309 307 309 307 305 303 305 310 309 302 296 299 297 291 299 290 307 300 276 274 256 272 274 257 237 217 219 208 219 212 227 239 249 259 267 268 270 263 240 235 235 233 231
310 308 308 308 308 311 319 319 311 302 295 293 296 292 288 294 301 292 290 267 254 302 294 272 265 261 234 241 232 237 259 256 259 263 261 260 254 251 236 234 236 231 229
318 314 314 314 312 314 314 311 305 302 301 302 302 296 302 294 278 277 283 275 276 273 303 280 270 285 260 237 251 256 245 252 250 248 251 242 241 246 239 232 233 228 225
317 314 313 311 311 310 308 307 305 305 301 299 302 296 290 286 287 284 285 301 283 290 286 291 254 257 251 247 254 256 255 259 252 248 243 236 239 237 234 231 228 226 225
314 315 317 320 323 330 332 323 312 302 305 312 316 320 303 288 283 273 275 279 285 294 311 274 274 244 229 232 241 249 249 257 256 240 235 232 238 235 231 227 224 222 225
342 350 350 346 357 5 3 356 355 334 314 310 307 299 292 284 281 283 273 279 290 293 253 274 265 247 225 215 226 239 231 255 243 231 235 234 238 235 234 230 225 220 221
9 0 0 2 355 344 334 330 326 325 320 311 304 299 295 283 278 280 275 262 270 279 256 288 327 253 237 196 214 211 231 242 245 259 238 241 248 242 236 230 223 218 215
4 3 359 353 348 344 339 335 331 328 320 306 295 296 275 280 267 268 264 248 244 232 251 266 318 117 164 184 181 195 200 338 165 263 278 275 248 240 236 229 220 213 210
8 7 4 4 1 355 343 341 327 326 315 309 313 285 261 263 237 244 240 255 230 235 242 271 290 93 328 146 145 154 154 139 72 58 88 82 72 3 294 213 204 204 204
9 10 13 15 7 359 345 330 331 330 333 342 349 314 246 244 246 229 217 222 201 179 174 198 72 141 152 155 148 150 136 130 118 100 100 113 102 85 129 151 166 180 194
12 18 14 10 360 356 360 6 7 19 13 1 354 330 274 220 228 222 227 231 191 154 169 167 151 155 155 157 155 164 152 125 113 107 99 98 88 87 102 96 120 153 166
10 13 8 5 10 12 9 19 26 19 20 34 40 48 98 114 168 227 168 115 162 158 141 124 104 156 157 152 161 139 122 109 119 107 109 98 98 95 82 87 99 131 147
20 20 19 28 19 18 33 32 30 41 48 63 58 65 72 78 80 103 93 105 127 145 150 145 145 136 124 121 121 115 109 109 106 109 113 103 99 95 89 88 94 93 94
29 25 22 27 27 29 42 38 45 59 60 61 58 66 74 77 78 81 106 106 103 119 140 147 134 119 106 108 111 116 128 133 107 105 101 99 101 102 95 90 94 102 106
27 28 31 29 33 32 39 41 55 66 63 64 68 66 72 83 74 87 92 89 87 112 115 124 112 105 112 119 119 102 114 123 115 113 112 102 105 101 102 100 94 97 100
25 28 34 33 35 33 36 46 56 67 66 66 80 78 73 74 81 93 92 85 94 97 108 101 100 95 116 98 121 133 136 116 113 113 115 104 107 101 103 104 103 96 97
24 26 41 36 41 34 38 51 56 64 70 78 84 81 75 76 84 90 89 94 91 93 94 94 84 80 76 71 104 125 128 128 118 111 109 109 108 108 107 106 106 109 113
29 27 48 51 46 39 45 52 56 63 76 82 85 83 77 82 90 91 94 98 98 93 82 94 82 83 70 78 90 98 99 118 116 107 117 119 123 116 105 111 115 117 115
Wind_Speed_850mb
29 36 35 35 33 32 30 35 35 35 34 39 44 48 49 53 57 55 48 46 42 53 53 47 52 50 52 47 37 38 29 25 24 30 34 39 42 45 44 42 40 38 37
33 39 39 41 40 39 36 37 37 37 39 40 45 49 52 54 58 57 54 53 51 48 52 55 53 56 58 59 45 41 35 28 22 21 28 35 38 44 49 47 45 43 42
32 36 43 47 46 43 42 45 40 43 45 48 47 49 51 57 61 55 53 54 55 49 52 58 57 57 62 65 55 44 44 39 32 25 25 28 33 35 43 51 51 48 47
37 41 46 52 50 50 51 52 46 48 53 58 57 57 60 64 62 51 51 57 57 55 44 56 59 59 56 60 62 52 50 47 39 30 24 24 28 34 35 40 53 53 52
39 45 53 56 54 56 58 59 55 58 61 60 57 59 59 66 62 51 48 46 53 50 39 47 59 57 55 58 61 56 52 52 44 37 29 30 33 35 38 40 43 54 58
45 54 54 50 54 59 58 53 58 58 60 55 55 58 57 61 58 42 41 32 37 40 27 29 36 46 52 54 58 55 53 50 47 41 33 35 36 47 49 49 49 47 51
52 56 55 49 53 54 54 59 59 52 51 49 57 64 59 57 28 40 31 27 20 24 17 19 27 35 42 47 49 52 53 40 35 40 37 34 38 45 53 59 59 56 49
52 49 46 48 47 45 46 44 44 48 59 48 45 50 35 31 31 20 35 26 22 15 12 14 21 35 46 46 50 49 53 46 41 44 40 43 50 49 53 56 60 64 58
36 35 33 34 37 40 42 46 48 49 52 43 37 30 20 16 31 40 19 19 24 19 20 15 17 16 33 27 38 34 34 35 43 46 49 50 53 49 51 53 52 59 64
26 30 36 38 39 38 39 38 39 42 48 45 38 37 33 35 33 29 23 23 24 26 23 28 14 12 25 20 27 35 31 38 45 49 49 46 44 42 46 46 48 54 57
39 42 42 35 37 43 42 42 41 38 37 37 34 38 52 49 44 48 42 33 30 25 26 23 33 24 12 24 24 22 29 32 36 43 43 41 40 41 48 45 44 49 51
47 47 45 46 48 47 44 39 38 31 32 37 43 44 44 44 37 38 25 27 28 26 23 17 21 25 35 26 20 23 24 34 37 36 39 31 32 35 34 43 46 47 51
43 40 38 35 33 30 30 32 31 30 29 26 27 30 22 30 30 27 28 26 23 22 18 18 14 20 26 27 40 26 24 30 28 25 29 33 33 30 30 32 37 42 43
26 25 27 27 24 25 26 29 25 20 24 29 29 28 27 23 24 23 21 20 14 15 7 14 17 14 19 17 18 24 20 22 19 16 21 24 30 35 36 35 35 37 40
27 26 29 27 26 25 28 26 25 25 27 28 26 24 22 18 18 17 18 17 11 8 6 12 5 14 14 17 18 12 9 11 15 17 20 21 26 30 36 41 42 41 40
30 29 31 29 29 29 29 28 27 24 29 30 31 26 19 19 16 9 12 13 14 13 6 10 10 1 11 23 15 11 5 0 3 9 10 11 18 25 33 39 44 45 42
34 32 33 32 32 31 30 26 22 27 29 28 33 26 22 16 9 16 10 11 10 11 13 8 9 6 7 17 18 11 10 8 9 7 5 10 9 2 2 14 33 42 42
33 33 31 30 32 36 35 32 35 34 31 29 21 17 18 21 17 10 14 11 10 9 12 6 6 11 21 22 10 11 17 37 47 50 37 23 15 14 12 12 26 32 33
29 28 30 33 37 39 38 37 33 25 26 27 25 19 13 12 17 9 12 13 14 13 11 4 8 16 17 21 4 18 25 45 41 50 54 61 62 48 31 18 19 25 28
31 26 34 35 36 40 41 32 27 28 25 29 33 34 28 16 9 5 7 9 13 21 11 12 6 20 22 18 21 34 34 33 32 32 33 43 48 54 58 65 45 35 27
31 29 33 37 44 51 39 34 28 30 30 32 36 37 30 25 19 22 19 21 18 21 15 18 25 24 24 23 29 43 50 45 50 51 43 47 49 53 53 52 52 51 54
33 30 32 39 50 50 32 32 29 36 37 35 37 34 31 27 25 21 28 28 14 21 23 26 31 32 31 34 27 34 41 41 45 44 49 59 51 58 56 51 45 44 41
38 33 33 40 48 53 36 33 29 34 35 34 36 33 31 34 32 31 29 27 23 22 29 27 34 24 13 19 17 16 25 34 45 47 44 51 43 47 50 46 41 43 43
36 36 32 36 43 53 46 30 25 30 36 36 40 45 46 43 40 40 45 34 34 32 32 28 28 24 23 14 21 15 24 31 37 39 42 53 44 49 42 46 45 42 41
34 37 30 34 44 53 49 35 30 31 32 35 34 34 39 43 43 42 42 46 53 53 46 39 35 44 37 30 28 31 30 33 37 34 37 45 40 44 41 43 44 44 41
35 39 31 33 37 49 49 42 32 32 36 38 43 47 53 54 54 52 56 58 57 45 39 40 29 30 33 35 28 19 19 19 29 24 24 38 36 35 32 35 36 38 37
Wind_Direction_850mb
280 263 271 278 278 286 284 295 297 309 318 326 331 329 325 324 322 318 310 300 285 263 250 245 241 233 226 231 237 242 242 248 274 277 257 242 240 236 232 228 227 223 220
289 271 269 277 279 288 282 286 288 300 311 314 323 326 323 323 322 313 306 301 291 277 259 241 241 233 227 230 236 234 237 228 258 267 261 245 239 236 232 231 228 225 224
288 279 282 288 285 282 284 281 286 299 307 312 320 321 321 322 324 313 307 305 301 288 266 246 239 238 234 230 235 231 224 221 234 245 258 247 247 242 234 231 229 227 225
291 289 286 292 289 284 282 286 290 296 302 301 308 316 317 322 324 312 305 303 302 299 276 246 237 238 237 237 236 233 224 224 226 233 244 249 246 248 249 237 230 229 229
295 293 290 292 288 286 284 290 290 297 297 296 300 306 310 318 320 311 305 299 303 307 285 240 236 237 238 236 235 230 225 222 225 233 245 256 260 253 248 248 241 231 230
291 292 292 290 284 285 289 284 286 294 295 294 300 301 305 317 311 301 300 296 314 320 283 242 243 237 234 236 231 225 229 226 228 236 243 259 270 254 247 244 242 241 233
290 291 292 290 287 285 288 288 290 291 291 294 302 303 309 311 290 296 268 288 295 307 267 233 243 220 212 208 215 218 222 203 232 248 256 270 273 264 248 239 238 237 238
298 301 294 290 290 296 299 301 301 299 301 297 301 315 307 299 305 283 290 266 257 268 263 232 209 217 211 202 206 215 221 236 235 249 259 271 274 273 248 238 235 233 234
309 307 309 307 305 303 305 310 309 302 296 299 297 291 299 290 307 300 276 274 256 272 274 257 237 217 219 208 219 212 227 239 249 259 267 268 270 263 240 235 235 233 231
310 308 308 308 308 311 319 319 311 302 295 293 296 292 288 294 301 292 290 267 254 302 294 272 265 261 234 241 232 237 259 256 259 263 261 260 254 251 236 234 236 231 229
318 314 314 314 312 314 314 311 305 302 301 302 302 296 302 294 278 277 283 275 276 273 303 280 270 285 260 237 251 256 245 252 250 248 251 242 241 246 239 232 233 228 225
317 314 313 311 311 310 308 307 305 305 301 299 302 296 290 286 287 284 285 301 283 290 286 291 254 257 251 247 254 256 255 259 252 248 243 236 239 237 234 231 228 226 225
314 315 317 320 323 330 332 323 312 302 305 312 316 320 303 288 283 273 275 279 285 294 311 274 274 244 229 232 241 249 249 257 256 240 235 232 238 235 231 227 224 222 225
342 350 350 346 357 5 3 356 355 334 314 310 307 299 292 284 281 283 273 279 290 293 253 274 265 247 225 215 226 239 231 255 243 231 235 234 238 235 234 230 225 220 221
9 0 0 2 355 344 334 330 326 325 320 311 304 299 295 283 278 280 275 262 270 279 256 288 327 253 237 196 214 211 231 242 245 259 238 241 248 242 236 230 223 218 215
4 3 359 353 348 344 339 335 331 328 320 306 295 296 275 280 267 268 264 248 244 232 251 266 318 117 164 184 181 195 200 338 165 263 278 275 248 240 236 229 220 213 210
8 7 4 4 1 355 343 341 327 326 315 309 313 285 261 263 237 244 240 255 230 235 242 271 290 93 328 146 145 154 154 139 72 58 88 82 72 3 294 213 204 204 204
9 10 13 15 7 359 345 330 331 330 333 342 349 314 246 244 246 229 217 222 201 179 174 198 72 141 152 155 148 150 136 130 118 100 100 113 102 85 129 151 166 180 194
12 18 14 10 360 356 360 6 7 19 13 1 354 330 274 220 228 222 227 231 191 154 169 167 151 155 155 157 155 164 152 125 113 107 99 98 88 87 102 96 120 153 166
10 13 8 5 10 12 9 19 26 19 20 34 40 48 98 114 168 227 168 115 162 158 141 124 104 156 157 152 161 139 122 109 119 107 109 98 98 95 82 87 99 131 147
20 20 19 28 19 18 33 32 30 41 48 63 58 65 72 78 80 103 93 105 127 145 150 145 145 136 124 121 121 115 109 109 106 109 113 103 99 95 89 88 94 93 94
29 25 22 27 27 29 42 38 45 59 60 61 58 66 74 77 78 81 106 106 103 119 140 147 134 119 106 108 111 116 128 133 107 105 101 99 101 102 95 90 94 102 106
27 28 31 29 33 32 39 41 55 66 63 64 68 66 72 83 74 87 92 89 87 112 115 124 112 105 112 119 119 102 114 123 115 113 112 102 105 101 102 100 94 97 100
25 28 34 33 35 33 36 46 56 67 66 66 80 78 73 74 81 93 92 85 94 97 108 101 100 95 116 98 121 133 136 116 113 113 115 104 107 101 103 104 103 96 97
24 26 41 36 41 34 38 51 56 64 70 78 84 81 75 76 84 90 89 94 91 93 94 94 84 80 76 71 104 125 128 128 118 111 109 109 108 108 107 106 106 109 113
29 27 48 51 46 39 45 52 56 63 76 82 85 83 77 82 90 91 94 98 98 93 82 94 82 83 70 78 90 98 99 118 116 107 117 119 123 116 105 111 115 117 115